Simultaneous Nadir Overpasses (SNOs) Predictions

Prediction of SNOs between AQUA and METOP-C Satellite Orbit:

Table of predicted SNOs for the next 14.0 days since TLE Epoch: 9/21/2019
Index Date (AQUA) Time (AQUA) Lat,Lon (AQUA) SZA (AQUA ) Date (METOP-C) Time (METOP-C) Lat,Lon (METOP-C) SZA (METOP-C ) Distance(km) Time Diff (sec)
1 09/21/2019 17:52:51 73.79, -93.93 73.13 09/21/2019 17:52:20 73.76, -93.90 73.10 3.40 31
2 09/21/2019 18:42:17 -73.83, 73.63 106.82 09/21/2019 18:43:01 -73.84, 73.61 106.81 1.05 44
3 09/24/2019 13:27:07 73.78, -27.48 74.21 09/24/2019 13:26:42 73.76, -27.49 74.19 2.69 25
4 09/24/2019 14:16:34 -73.87, 139.98 105.69 09/24/2019 14:17:23 -73.84, 140.03 105.72 3.15 49
5 09/27/2019 08:11:45 -73.24,-127.53 105.27 09/27/2019 08:10:37 -73.17,-129.76 105.29 72.00 68
6 09/27/2019 09:01:23 73.78, 38.95 75.31 09/27/2019 09:01:04 73.76, 38.92 75.29 2.97 19
7 09/27/2019 09:50:50 -73.86,-153.57 104.61 09/27/2019 09:51:45 -73.85,-153.55 104.62 1.44 55
8 09/30/2019 03:46:04 -73.45, -61.53 103.97 09/30/2019 03:44:54 -73.38, -62.90 104.01 44.30 70
9 09/30/2019 04:35:38 73.79, 105.37 76.40 09/30/2019 04:35:24 73.81, 105.44 76.42 2.99 14
10 09/30/2019 05:25:05 -73.86, -87.13 103.52 09/30/2019 05:26:06 -73.85, -87.14 103.53 0.71 61
11 10/02/2019 23:20:24 -73.66, 4.45 102.66 10/02/2019 23:19:11 -73.63, 4.09 102.68 12.09 73
12 10/03/2019 00:09:54 73.80, 171.78 77.51 10/03/2019 00:09:46 73.81, 171.85 77.51 2.40 8
13 10/03/2019 00:59:21 -73.86, -20.71 102.42 10/03/2019 01:00:28 -73.85, -20.72 102.43 0.92 67




NCC Satellite Simultaneous Nadir Overpasses (SNOs) Prediction Service
